• In Belarus
  • List of Countries
  • For 7 days
  • Water Temperature
  • Satellite Maps
  • Weather Map
  • Weather Widgets
  • user-avatar
    Login

    Hourly Weather Mazari Sharif

    Today, 25 February, Sunday

    Time Temperature Precipitation Wind Pressure Humidity
    00:00 +7°C° 0 mm 2 mps 655 mmHg 66%
    01:00 +7°C° 0 mm 3 mps 655 mmHg 64%
    02:00 +7°C° 0 mm 3 mps 655 mmHg 63%
    03:00 +7°C° 0 mm 3 mps 655 mmHg 61%
    04:00 +7°C° 0 mm 3 mps 655 mmHg 59%
    05:00 +7°C° 0 mm 3 mps 655 mmHg 57%
    06:00 +7°C° 0 mm 4 mps 655 mmHg 55%
    07:00 +7°C° 0 mm 4 mps 655 mmHg 53%
    08:00 +10°C° 0 mm 4 mps 655 mmHg 47%
    09:00 +12°C° 0 mm 4 mps 655 mmHg 42%
    10:00 +14°C° 0 mm 4 mps 655 mmHg 37%
    11:00 +14°C° 0 mm 4 mps 655 mmHg 35%
    12:00 +15°C° 0 mm 4 mps 654 mmHg 33%
    13:00 +17°C° 0 mm 4 mps 654 mmHg 32%
    14:00 +17°C° 0 mm 4 mps 653 mmHg 34%
    15:00 +15°C° 0 mm 4 mps 653 mmHg 36%
    16:00 +16°C° 0 mm 3 mps 652 mmHg 38%
    17:00 +14°C° 0.2 mm 3 mps 652 mmHg 42%
    18:00 +13°C° 0.2 mm 3 mps 652 mmHg 45%
    19:00 +12°C° 0.2 mm 3 mps 652 mmHg 49%
    20:00 +12°C° 0.2 mm 3 mps 652 mmHg 50%
    21:00 +12°C° 0.2 mm 3 mps 652 mmHg 52%
    22:00 +11°C° 0.2 mm 3 mps 652 mmHg 53%
    23:00 +11°C° 0.2 mm 3 mps 651 mmHg 53%

    Tomorrow, 26 February, Monday

    Time Temperature Precipitation Wind Pressure Humidity
    00:00 +11°C° 0.2 mm 4 mps 651 mmHg 54%
    01:00 +10°C° 0.2 mm 5 mps 650 mmHg 54%
    02:00 +11°C° 0 mm 4 mps 650 mmHg 54%
    03:00 +10°C° 0 mm 4 mps 650 mmHg 54%
    04:00 +10°C° 0 mm 4 mps 649 mmHg 54%
    05:00 +10°C° 0 mm 3 mps 650 mmHg 54%
    06:00 +10°C° 0 mm 3 mps 650 mmHg 54%
    07:00 +10°C° 0 mm 3 mps 650 mmHg 54%
    08:00 +12°C° 0 mm 3 mps 650 mmHg 51%
    09:00 +13°C° 0 mm 3 mps 651 mmHg 47%
    10:00 +15°C° 0 mm 2 mps 651 mmHg 44%
    11:00 +14°C° 0 mm 3 mps 651 mmHg 45%
    12:00 +16°C° 0 mm 3 mps 651 mmHg 46%
    13:00 +16°C° 0 mm 3 mps 650 mmHg 47%
    14:00 +14°C° 0 mm 4 mps 650 mmHg 52%
    15:00 +13°C° 0 mm 4 mps 650 mmHg 58%
    16:00 +13°C° 0 mm 5 mps 650 mmHg 63%
    17:00 +10°C° 1.6 mm 5 mps 651 mmHg 69%
    18:00 +9°C° 1.6 mm 5 mps 651 mmHg 76%
    19:00 +8°C° 1.6 mm 4 mps 652 mmHg 83%
    20:00 +8°C° 0.6 mm 4 mps 652 mmHg 77%
    21:00 +9°C° 0.6 mm 3 mps 653 mmHg 72%
    22:00 +10°C° 0.6 mm 3 mps 654 mmHg 67%
    23:00 +9°C° 0.1 mm 2 mps 654 mmHg 66%

    Day after tomorrow, 27 February, Tuesday

    Time Temperature Precipitation Wind Pressure Humidity
    00:00 +9°C° 0.1 mm 2 mps 654 mmHg 66%
    01:00 +10°C° 0.1 mm 1 mps 654 mmHg 66%
    02:00 +10°C° 0 mm 1 mps 654 mmHg 65%
    03:00 +9°C° 0 mm 2 mps 654 mmHg 64%
    04:00 +8°C° 0 mm 2 mps 655 mmHg 64%
    05:00 +9°C° 0 mm 2 mps 655 mmHg 62%
    06:00 +9°C° 0 mm 2 mps 655 mmHg 61%
    07:00 +9°C° 0 mm 2 mps 656 mmHg 60%
    08:00 +12°C° 0 mm 2 mps 656 mmHg 55%
    09:00 +12°C° 0 mm 3 mps 656 mmHg 51%
    10:00 +14°C° 0 mm 3 mps 657 mmHg 46%
    11:00 +14°C° 0 mm 3 mps 656 mmHg 44%
    12:00 +16°C° 0 mm 3 mps 656 mmHg 43%
    13:00 +16°C° 0 mm 3 mps 656 mmHg 41%
    14:00 +16°C° 0.2 mm 3 mps 655 mmHg 43%
    15:00 +16°C° 0.2 mm 3 mps 655 mmHg 44%
    16:00 +16°C° 0.2 mm 3 mps 655 mmHg 46%
    17:00 +14°C° 0.2 mm 3 mps 655 mmHg 49%
    18:00 +14°C° 0.2 mm 2 mps 655 mmHg 53%
    19:00 +13°C° 0.2 mm 2 mps 655 mmHg 56%
    20:00 +13°C° 0.1 mm 2 mps 655 mmHg 56%
    21:00 +13°C° 0.1 mm 2 mps 655 mmHg 56%
    22:00 +12°C° 0.1 mm 2 mps 655 mmHg 56%
    23:00 +12°C° 0 mm 2 mps 655 mmHg 55%

    28 February, Wednesday

    Time Temperature Precipitation Wind Pressure Humidity
    00:00 +12°C° 0 mm 2 mps 655 mmHg 55%
    01:00 +12°C° 0 mm 2 mps 654 mmHg 54%
    02:00 +10°C° 0 mm 2 mps 654 mmHg 54%
    03:00 +10°C° 0 mm 2 mps 654 mmHg 53%
    04:00 +10°C° 0 mm 2 mps 654 mmHg 53%
    05:00 +10°C° 0 mm 2 mps 654 mmHg 52%
    06:00 +10°C° 0 mm 3 mps 654 mmHg 50%
    07:00 +11°C° 0 mm 3 mps 654 mmHg 49%
    08:00 +12°C° 0 mm 3 mps 654 mmHg 43%
    09:00 +15°C° 0 mm 2 mps 655 mmHg 38%
    10:00 +16°C° 0 mm 2 mps 655 mmHg 33%
    11:00 +17°C° 0 mm 2 mps 654 mmHg 32%
    12:00 +18°C° 0 mm 2 mps 654 mmHg 31%
    13:00 +18°C° 0 mm 2 mps 654 mmHg 30%
    14:00 +18°C° 0 mm 2 mps 653 mmHg 31%
    15:00 +18°C° 0 mm 2 mps 653 mmHg 32%
    16:00 +18°C° 0 mm 2 mps 653 mmHg 33%
    17:00 +17°C° 0.1 mm 2 mps 653 mmHg 38%
    18:00 +16°C° 0.1 mm 2 mps 653 mmHg 42%
    19:00 +15°C° 0.1 mm 2 mps 653 mmHg 47%
    20:00 +15°C° 0.2 mm 2 mps 653 mmHg 47%
    21:00 +15°C° 0.2 mm 2 mps 653 mmHg 48%
    22:00 +14°C° 0.2 mm 2 mps 653 mmHg 49%
    23:00 +14°C° 0.1 mm 2 mps 652 mmHg 49%

    1 March, Thursday

    Time Temperature Precipitation Wind Pressure Humidity
    00:00 +14°C° 0.1 mm 2 mps 652 mmHg 50%
    01:00 +13°C° 0.1 mm 2 mps 652 mmHg 50%
    02:00 +13°C° 0.1 mm 2 mps 652 mmHg 52%
    03:00 +12°C° 0.1 mm 1 mps 651 mmHg 54%
    04:00 +12°C° 0.1 mm 1 mps 651 mmHg 56%
    05:00 +10°C° 0.2 mm 2 mps 652 mmHg 60%
    06:00 +10°C° 0.2 mm 3 mps 652 mmHg 64%
    07:00 +9°C° 0.2 mm 3 mps 652 mmHg 68%
    08:00 +9°C° 0.1 mm 3 mps 652 mmHg 70%
    09:00 +10°C° 0.1 mm 3 mps 653 mmHg 72%
    10:00 +10°C° 0.1 mm 3 mps 653 mmHg 73%
    11:00 +10°C° 0.1 mm 3 mps 653 mmHg 71%
    12:00 +11°C° 0.1 mm 3 mps 652 mmHg 68%
    13:00 +11°C° 0.1 mm 4 mps 652 mmHg 66%
    14:00 +11°C° 0.1 mm 3 mps 652 mmHg 67%
    15:00 +11°C° 0.1 mm 3 mps 652 mmHg 68%
    16:00 +11°C° 0.1 mm 3 mps 652 mmHg 70%
    17:00 +10°C° 0.3 mm 2 mps 652 mmHg 72%
    18:00 +10°C° 0.3 mm 2 mps 653 mmHg 75%
    19:00 +10°C° 0.3 mm 1 mps 653 mmHg 78%
    20:00 +10°C° 0.3 mm 1 mps 653 mmHg 79%
    21:00 +10°C° 0.3 mm 1 mps 653 mmHg 80%
    22:00 +10°C° 0.3 mm 1 mps 653 mmHg 81%
    23:00 +10°C° 0.4 mm 1 mps 653 mmHg 83%

    2 March, Friday

    Time Temperature Precipitation Wind Pressure Humidity
    00:00 +9°C° 0.4 mm 1 mps 653 mmHg 84%
    01:00 +9°C° 0.4 mm 1 mps 653 mmHg 86%
    02:00 +9°C° 0.4 mm 1 mps 653 mmHg 87%
    03:00 +9°C° 0.4 mm 1 mps 653 mmHg 89%
    04:00 +8°C° 0.4 mm 1 mps 653 mmHg 90%
    05:00 +8°C° 0.7 mm 1 mps 653 mmHg 89%
    06:00 +8°C° 0.7 mm 1 mps 653 mmHg 89%
    07:00 +8°C° 0.7 mm 1 mps 654 mmHg 88%
    08:00 +9°C° 0.6 mm 1 mps 654 mmHg 82%
    09:00 +10°C° 0.6 mm 1 mps 654 mmHg 76%
    10:00 +11°C° 0.6 mm 1 mps 655 mmHg 70%
    11:00 +10°C° 0.5 mm 2 mps 655 mmHg 67%
    12:00 +12°C° 0.5 mm 2 mps 655 mmHg 65%
    13:00 +12°C° 0.5 mm 2 mps 655 mmHg 62%
    14:00 +12°C° 0.4 mm 2 mps 655 mmHg 62%
    15:00 +12°C° 0.4 mm 2 mps 655 mmHg 61%
    16:00 +12°C° 0.4 mm 2 mps 654 mmHg 61%
    17:00 +12°C° 0.4 mm 1 mps 655 mmHg 64%
    18:00 +11°C° 0.4 mm 1 mps 655 mmHg 66%
    19:00 +11°C° 0.4 mm 1 mps 655 mmHg 69%
    20:00 +11°C° 0.2 mm 1 mps 655 mmHg 70%
    21:00 +10°C° 0.2 mm 1 mps 655 mmHg 71%
    22:00 +10°C° 0.2 mm 1 mps 655 mmHg 72%
    23:00 +10°C° 0.1 mm 1 mps 655 mmHg 72%
    Show more